Total_Precipitation_Accumulation
0.00 0.00 0.01 0.01 0.01 0.02 0.03 0.07 0.14 0.22 0.17 0.25 0.33 0.44 0.59 0.76 0.99 1.02 1.10 1.21 1.43 1.73 2.14 2.81 3.49 4.06 4.73 5.47 6.01 5.87 5.23 4.70 4.09 3.54 2.95 2.79 2.51 2.23 1.97 1.76 1.56 1.53 1.45 1.24
0.01 0.03 0.03 0.02 0.02 0.03 0.04 0.08 0.13 0.18 0.15 0.14 0.26 0.53 0.69 0.78 0.95 0.90 0.91 0.94 1.13 1.48 2.09 2.88 3.49 3.69 3.70 3.96 4.20 3.71 3.48 3.43 3.02 2.68 2.55 2.39 2.18 1.92 1.69 1.56 1.49 1.26 1.20 1.14
0.02 0.04 0.03 0.02 0.03 0.04 0.07 0.09 0.10 0.16 0.17 0.22 0.36 0.70 0.92 0.85 0.84 0.73 0.71 0.91 1.38 1.77 2.21 2.73 2.89 2.90 2.79 2.77 2.75 2.51 2.43 2.69 2.59 2.51 2.42 2.33 2.24 2.12 1.86 1.52 1.43 1.19 1.04 1.03
0.01 0.03 0.03 0.04 0.04 0.05 0.07 0.06 0.04 0.05 0.12 0.35 0.51 0.91 1.09 1.00 0.94 0.67 0.71 1.08 1.59 1.90 2.17 2.17 1.78 1.66 1.81 1.89 1.97 2.19 2.26 2.36 2.26 2.28 2.07 1.85 1.67 1.52 1.40 1.34 1.32 1.30 1.14 1.03
0.03 0.03 0.03 0.04 0.04 0.04 0.04 0.04 0.03 0.06 0.15 0.39 0.66 1.08 1.26 1.06 0.87 0.62 0.59 0.67 1.04 1.25 1.23 1.03 0.89 0.97 1.20 1.45 1.67 2.03 2.12 2.12 2.01 1.95 1.95 1.95 1.81 1.72 1.58 1.52 1.56 1.53 1.50 1.30
0.04 0.04 0.04 0.03 0.03 0.03 0.03 0.04 0.10 0.20 0.38 0.82 0.86 0.95 1.19 1.01 0.80 0.61 0.42 0.45 0.70 0.74 0.60 0.62 0.70 0.89 1.13 1.29 1.39 1.58 1.74 1.92 1.97 1.99 2.04 1.97 1.90 1.90 1.70 1.54 1.44 1.42 1.43 1.36
0.09 0.08 0.06 0.04 0.03 0.04 0.03 0.05 0.25 0.60 0.89 1.01 0.73 0.87 1.17 0.78 0.52 0.41 0.29 0.26 0.30 0.34 0.43 0.60 0.66 0.86 0.97 1.09 1.11 1.20 1.32 1.52 1.64 1.73 1.86 1.89 1.89 1.89 1.68 1.54 1.41 1.36 1.26 1.18
0.14 0.14 0.08 0.04 0.05 0.05 0.04 0.03 0.10 0.21 0.33 0.53 0.69 1.07 1.15 0.75 0.41 0.24 0.19 0.19 0.19 0.23 0.30 0.35 0.38 0.48 0.62 0.79 0.98 1.12 1.16 1.18 1.20 1.27 1.46 1.64 1.66 1.67 1.60 1.61 1.39 1.29 1.21 1.20
0.05 0.04 0.04 0.04 0.05 0.03 0.03 0.03 0.04 0.05 0.08 0.31 0.73 1.01 0.92 0.58 0.40 0.29 0.24 0.24 0.22 0.22 0.29 0.26 0.25 0.32 0.41 0.46 0.62 0.83 0.92 0.92 0.94 1.01 1.16 1.27 1.32 1.42 1.52 1.48 1.32 1.17 1.19 1.21
0.02 0.02 0.03 0.03 0.03 0.04 0.04 0.03 0.03 0.05 0.10 0.23 0.57 1.04 1.18 0.81 0.56 0.40 0.33 0.26 0.22 0.24 0.24 0.26 0.27 0.27 0.30 0.32 0.45 0.62 0.76 0.80 0.83 0.88 0.94 0.94 1.07 1.18 1.30 1.33 1.29 1.16 1.12 1.18
0.02 0.01 0.02 0.03 0.04 0.06 0.05 0.04 0.05 0.06 0.07 0.15 0.42 0.67 0.67 0.69 0.56 0.36 0.31 0.28 0.24 0.25 0.26 0.30 0.26 0.30 0.26 0.25 0.33 0.46 0.63 0.72 0.69 0.72 0.79 0.88 0.98 1.15 1.23 1.23 1.26 1.21 1.17 1.19
0.02 0.01 0.02 0.04 0.06 0.06 0.07 0.07 0.07 0.08 0.08 0.11 0.20 0.34 0.38 0.41 0.44 0.48 0.40 0.34 0.34 0.37 0.30 0.29 0.25 0.28 0.22 0.23 0.30 0.38 0.46 0.55 0.60 0.67 0.77 0.86 0.94 1.05 1.17 1.15 1.20 1.26 1.23 1.20
0.02 0.01 0.03 0.10 0.15 0.14 0.10 0.09 0.08 0.08 0.08 0.08 0.19 0.34 0.34 0.29 0.32 0.38 0.37 0.41 0.43 0.36 0.34 0.28 0.31 0.32 0.25 0.25 0.29 0.36 0.46 0.57 0.65 0.72 0.84 0.87 0.84 0.91 1.06 1.13 1.16 1.21 1.25 1.27
0.02 0.02 0.02 0.08 0.16 0.20 0.19 0.14 0.10 0.07 0.06 0.06 0.11 0.22 0.22 0.32 0.40 0.37 0.40 0.47 0.43 0.28 0.27 0.28 0.29 0.31 0.34 0.34 0.37 0.44 0.56 0.62 0.69 0.65 0.71 0.79 0.83 0.97 1.11 1.16 1.17 1.19 1.19 1.24
0.02 0.02 0.02 0.02 0.06 0.12 0.17 0.16 0.11 0.06 0.05 0.06 0.07 0.13 0.21 0.36 0.46 0.48 0.47 0.49 0.43 0.31 0.30 0.31 0.33 0.32 0.34 0.39 0.42 0.48 0.60 0.62 0.67 0.80 0.88 0.96 0.98 1.06 1.20 1.28 1.24 1.26 1.28 1.28
0.04 0.04 0.03 0.03 0.05 0.08 0.11 0.14 0.10 0.06 0.06 0.05 0.07 0.14 0.26 0.43 0.47 0.50 0.47 0.42 0.39 0.38 0.34 0.38 0.41 0.41 0.39 0.42 0.48 0.54 0.61 0.69 0.85 1.14 1.25 1.25 1.30 1.34 1.36 1.37 1.35 1.40 1.47 1.61
0.11 0.09 0.07 0.05 0.07 0.08 0.13 0.12 0.10 0.09 0.08 0.08 0.12 0.21 0.29 0.41 0.54 0.61 0.53 0.41 0.40 0.38 0.40 0.45 0.55 0.59 0.55 0.54 0.57 0.60 0.64 0.71 0.89 1.12 1.25 1.35 1.38 1.41 1.47 1.48 1.51 1.53 1.59 1.67
0.19 0.19 0.15 0.10 0.10 0.17 0.15 0.14 0.14 0.13 0.13 0.16 0.25 0.35 0.40 0.41 0.47 0.50 0.42 0.41 0.44 0.44 0.51 0.58 0.59 0.68 0.71 0.72 0.72 0.79 0.87 0.97 1.07 1.17 1.29 1.44 1.50 1.54 1.57 1.56 1.49 1.47 1.51 1.51
0.24 0.27 0.24 0.21 0.20 0.18 0.17 0.20 0.21 0.20 0.26 0.29 0.40 0.52 0.57 0.55 0.53 0.61 0.54 0.51 0.52 0.56 0.60 0.69 0.77 0.79 0.85 0.95 0.99 1.00 1.10 1.22 1.27 1.32 1.46 1.57 1.66 1.74 1.67 1.56 1.52 1.45 1.44 1.35
0.29 0.33 0.38 0.33 0.34 0.34 0.26 0.30 0.30 0.31 0.53 0.52 0.57 0.67 0.73 0.73 0.89 0.96 0.72 0.68 0.63 0.61 0.64 0.68 0.83 0.98 0.98 1.07 1.16 1.21 1.23 1.25 1.30 1.32 1.40 1.52 1.61 1.74 1.78 1.68 1.61 1.55 1.56 1.50
0.42 0.44 0.41 0.41 0.43 0.39 0.37 0.35 0.36 0.65 0.89 0.81 0.77 0.76 0.84 0.94 0.88 0.83 0.70 0.70 0.70 0.64 0.64 0.66 0.73 0.89 0.96 1.03 1.12 1.24 1.27 1.22 1.22 1.20 1.20 1.31 1.46 1.60 1.66 1.66 1.61 1.63 1.60 1.52
0.60 0.63 0.59 0.54 0.68 0.76 0.55 0.45 0.65 0.91 0.91 0.98 0.89 0.87 0.91 0.95 0.96 0.91 0.84 0.78 0.72 0.62 0.63 0.67 0.71 0.78 0.90 1.05 1.24 1.37 1.36 1.31 1.29 1.30 1.37 1.41 1.44 1.43 1.40 1.42 1.42 1.48 1.53 1.49
0.78 0.82 0.82 0.82 0.95 0.88 0.64 0.65 0.73 0.75 0.91 0.95 0.90 0.91 0.94 0.92 0.90 0.85 0.76 0.73 0.77 0.70 0.68 0.66 0.73 0.80 0.94 1.13 1.33 1.53 1.53 1.51 1.49 1.48 1.48 1.48 1.48 1.46 1.44 1.40 1.38 1.36 1.32 1.25
0.87 0.74 0.88 1.08 1.21 1.03 0.86 0.77 0.78 0.85 0.92 0.97 0.93 0.98 0.97 0.90 0.83 0.80 0.77 0.73 0.78 0.78 0.72 0.71 0.73 0.79 0.90 0.99 1.12 1.31 1.40 1.42 1.49 1.45 1.36 1.27 1.24 1.21 1.23 1.27 1.29 1.30 1.26 1.22
0.95 0.92 1.04 1.37 1.56 1.41 1.22 1.02 0.91 1.01 1.15 1.21 1.16 1.08 0.99 0.99 1.01 1.03 0.98 0.86 0.78 0.77 0.79 0.77 0.78 0.81 0.84 0.90 0.95 1.05 1.17 1.27 1.41 1.47 1.41 1.36 1.30 1.24 1.23 1.28 1.35 1.28 1.22 1.20
0.85 1.05 1.26 1.57 1.58 1.62 1.52 1.22 1.11 1.18 1.30 1.34 1.23 1.20 1.16 1.13 1.10 1.01 0.92 0.83 0.77 0.74 0.77 0.82 0.87 0.89 0.86 0.88 0.95 1.03 1.15 1.31 1.47 1.48 1.40 1.39 1.39 1.36 1.32 1.29 1.30 1.33 1.17 1.13